Year,Month,Day,Hour,Minute,Value (Times are PST for temperature in C)
2011,03,17,00,00,3.20
2011,03,17,00,01,3.10
2011,03,17,00,02,3.10
2011,03,17,00,03,3.10
2011,03,17,00,04,3.10
2011,03,17,00,05,3.10
2011,03,17,00,06,3.10
2011,03,17,00,07,3.10
2011,03,17,00,08,3.00
2011,03,17,00,09,3.00
2011,03,17,00,10,3.00
2011,03,17,00,11,3.00
2011,03,17,00,12,3.00
2011,03,17,00,13,3.10
2011,03,17,00,14,3.10
2011,03,17,00,15,3.10
2011,03,17,00,16,3.10
2011,03,17,00,17,3.10
2011,03,17,00,18,3.10
2011,03,17,00,19,3.00
2011,03,17,00,20,2.90
2011,03,17,00,21,2.90
2011,03,17,00,22,2.90
2011,03,17,00,23,2.80
2011,03,17,00,24,2.80
2011,03,17,00,25,2.70
2011,03,17,00,26,2.70
2011,03,17,00,27,2.60
2011,03,17,00,28,2.50
2011,03,17,00,29,2.50
2011,03,17,00,30,2.40
2011,03,17,00,31,2.40
2011,03,17,00,32,2.30
2011,03,17,00,33,2.30
2011,03,17,00,34,2.20
2011,03,17,00,35,2.20
2011,03,17,00,36,2.20
2011,03,17,00,37,2.10
2011,03,17,00,38,2.10
2011,03,17,00,39,2.00
2011,03,17,00,40,2.00
2011,03,17,00,41,1.90
2011,03,17,00,42,1.90
2011,03,17,00,43,1.80
2011,03,17,00,44,1.80
2011,03,17,00,45,1.80
2011,03,17,00,46,1.70
2011,03,17,00,47,1.70
2011,03,17,00,48,1.60
2011,03,17,00,49,1.50
2011,03,17,00,50,1.50
2011,03,17,00,51,1.40
2011,03,17,00,52,1.30
2011,03,17,00,53,1.30
2011,03,17,00,54,1.30
2011,03,17,00,55,1.30
2011,03,17,00,56,1.30
2011,03,17,00,57,1.30
2011,03,17,00,58,1.30
2011,03,17,00,59,1.30
2011,03,17,01,00,1.30
2011,03,17,01,01,1.30
2011,03,17,01,02,1.30
2011,03,17,01,03,1.30
2011,03,17,01,04,1.30
2011,03,17,01,05,1.20
2011,03,17,01,06,1.20
2011,03,17,01,07,1.10
2011,03,17,01,08,1.10
2011,03,17,01,09,1.00
2011,03,17,01,10,1.00
2011,03,17,01,11,1.00
2011,03,17,01,12,1.00
2011,03,17,01,13,1.00
2011,03,17,01,14,1.00
2011,03,17,01,15,1.00
2011,03,17,01,16,0.90
2011,03,17,01,17,0.90
2011,03,17,01,18,0.90
2011,03,17,01,19,0.90
2011,03,17,01,20,0.80
2011,03,17,01,21,0.80
2011,03,17,01,22,0.80
2011,03,17,01,23,0.80
2011,03,17,01,24,0.80
2011,03,17,01,25,0.70
2011,03,17,01,26,0.70
2011,03,17,01,27,0.70
2011,03,17,01,28,0.70
2011,03,17,01,29,0.60
2011,03,17,01,30,0.60
2011,03,17,01,31,0.60
2011,03,17,01,32,0.60
2011,03,17,01,33,0.60
2011,03,17,01,34,0.60
2011,03,17,01,35,0.60
2011,03,17,01,36,0.50
2011,03,17,01,37,0.50
2011,03,17,01,38,0.50
2011,03,17,01,39,0.50
2011,03,17,01,40,0.40
2011,03,17,01,41,0.40
2011,03,17,01,42,0.40
2011,03,17,01,43,0.40
2011,03,17,01,44,0.30
2011,03,17,01,45,0.30
2011,03,17,01,46,0.30
2011,03,17,01,47,0.30
2011,03,17,01,48,0.30
2011,03,17,01,49,0.30
2011,03,17,01,50,0.30
2011,03,17,01,51,0.30
2011,03,17,01,52,0.30
2011,03,17,01,53,0.30
2011,03,17,01,54,0.30
2011,03,17,01,55,0.30
2011,03,17,01,56,0.30
2011,03,17,01,57,0.30
2011,03,17,01,58,0.30
2011,03,17,01,59,0.30
2011,03,17,02,00,0.30
2011,03,17,02,01,0.30
2011,03,17,02,02,0.30
2011,03,17,02,03,0.30
2011,03,17,02,04,0.30
2011,03,17,02,05,0.30
2011,03,17,02,06,0.30
2011,03,17,02,07,0.30
2011,03,17,02,08,0.30
2011,03,17,02,09,0.30
2011,03,17,02,10,0.30
2011,03,17,02,11,0.30
2011,03,17,02,12,0.30
2011,03,17,02,13,0.30
2011,03,17,02,14,0.30
2011,03,17,02,15,0.40
2011,03,17,02,16,0.40
2011,03,17,02,17,0.40
2011,03,17,02,18,0.50
2011,03,17,02,19,0.50
2011,03,17,02,20,0.50
2011,03,17,02,21,0.50
2011,03,17,02,22,0.50
2011,03,17,02,23,0.50
2011,03,17,02,24,0.40
2011,03,17,02,25,0.40
2011,03,17,02,26,0.30
2011,03,17,02,27,0.30
2011,03,17,02,28,0.30
2011,03,17,02,29,0.30
2011,03,17,02,30,0.30
2011,03,17,02,31,0.20
2011,03,17,02,32,0.20
2011,03,17,02,33,0.20
2011,03,17,02,34,0.20
2011,03,17,02,35,0.20
2011,03,17,02,36,0.10
2011,03,17,02,37,0.10
2011,03,17,02,38,0.10
2011,03,17,02,39,0.10
2011,03,17,02,40,0.10
2011,03,17,02,41,0.00
2011,03,17,02,42,0.00
2011,03,17,02,43,0.00
2011,03,17,02,44,0.00
2011,03,17,02,45,-0.10
2011,03,17,02,46,-0.10
2011,03,17,02,47,-0.10
2011,03,17,02,48,-0.10
2011,03,17,02,49,-0.10
2011,03,17,02,50,-0.20
2011,03,17,02,51,-0.20
2011,03,17,02,52,-0.20
2011,03,17,02,53,-0.20
2011,03,17,02,54,-0.20
2011,03,17,02,55,-0.20
2011,03,17,02,56,-0.20
2011,03,17,02,57,-0.20
2011,03,17,02,58,-0.20
2011,03,17,02,59,-0.20
2011,03,17,03,00,-0.10
2011,03,17,03,01,-0.10
2011,03,17,03,02,-0.10
2011,03,17,03,06,-0.20
2011,03,17,03,07,-0.20
2011,03,17,03,08,-0.20
2011,03,17,03,09,-0.20
2011,03,17,03,10,-0.20
2011,03,17,03,11,-0.20
2011,03,17,03,12,-0.20
2011,03,17,03,13,-0.30
2011,03,17,03,14,-0.30
2011,03,17,03,15,-0.30
2011,03,17,03,16,-0.30
2011,03,17,03,17,-0.30
2011,03,17,03,18,-0.30
2011,03,17,03,19,-0.30
2011,03,17,03,20,-0.30
2011,03,17,03,21,-0.20
2011,03,17,03,22,-0.20
2011,03,17,03,23,-0.20
2011,03,17,03,24,-0.20
2011,03,17,03,25,-0.20
2011,03,17,03,26,-0.20
2011,03,17,03,27,-0.20
2011,03,17,03,28,-0.10
2011,03,17,03,29,-0.20
2011,03,17,03,30,-0.20
2011,03,17,03,31,-0.20
2011,03,17,03,32,-0.20
2011,03,17,03,33,-0.30
2011,03,17,03,34,-0.30
2011,03,17,03,35,-0.40
2011,03,17,03,36,-0.40
2011,03,17,03,37,-0.50
2011,03,17,03,38,-0.50
2011,03,17,03,39,-0.50
2011,03,17,03,40,-0.60
2011,03,17,03,41,-0.60
2011,03,17,03,42,-0.60
2011,03,17,03,43,-0.60
2011,03,17,03,44,-0.60
2011,03,17,03,45,-0.60
2011,03,17,03,46,-0.60
2011,03,17,03,47,-0.60
2011,03,17,03,48,-0.60
2011,03,17,03,49,-0.60
2011,03,17,03,50,-0.60
2011,03,17,03,51,-0.60
2011,03,17,03,52,-0.60
2011,03,17,03,53,-0.50
2011,03,17,03,54,-0.50
2011,03,17,03,55,-0.40
2011,03,17,03,56,-0.40
2011,03,17,03,57,-0.40
2011,03,17,03,58,-0.40
2011,03,17,03,59,-0.40
2011,03,17,04,00,-0.40
2011,03,17,04,01,-0.30
2011,03,17,04,02,-0.30
2011,03,17,04,03,-0.30
2011,03,17,04,04,-0.30
2011,03,17,04,05,-0.30
2011,03,17,04,06,-0.30
2011,03,17,04,07,-0.30
2011,03,17,04,08,-0.30
2011,03,17,04,09,-0.40
2011,03,17,04,10,-0.40
2011,03,17,04,11,-0.50
2011,03,17,04,12,-0.50
2011,03,17,04,13,-0.60
2011,03,17,04,14,-0.60
2011,03,17,04,15,-0.60
2011,03,17,04,16,-0.70
2011,03,17,04,17,-0.70
2011,03,17,04,18,-0.70
2011,03,17,04,19,-0.70
2011,03,17,04,20,-0.70
2011,03,17,04,21,-0.70
2011,03,17,04,22,-0.70
2011,03,17,04,23,-0.70
2011,03,17,04,24,-0.70
2011,03,17,04,25,-0.70
2011,03,17,04,26,-0.70
2011,03,17,04,27,-0.70
2011,03,17,04,28,-0.70
2011,03,17,04,29,-0.80
2011,03,17,04,30,-0.80
2011,03,17,04,31,-0.80
2011,03,17,04,32,-0.80
2011,03,17,04,33,-0.80
2011,03,17,04,34,-0.80
2011,03,17,04,35,-0.90
2011,03,17,04,36,-0.90
2011,03,17,04,37,-0.90
2011,03,17,04,38,-0.90
2011,03,17,04,39,-0.90
2011,03,17,04,40,-1.00
2011,03,17,04,41,-1.00
2011,03,17,04,42,-1.00
2011,03,17,04,43,-1.00
2011,03,17,04,44,-1.00
2011,03,17,04,45,-1.10
2011,03,17,04,46,-1.10
2011,03,17,04,47,-1.10
2011,03,17,04,48,-1.10
2011,03,17,04,49,-1.20
2011,03,17,04,50,-1.20
2011,03,17,04,51,-1.20
2011,03,17,04,52,-1.20
2011,03,17,04,53,-1.20
2011,03,17,04,54,-1.10
2011,03,17,04,55,-1.00
2011,03,17,04,56,-1.00
2011,03,17,04,57,-0.90
2011,03,17,04,58,-0.80
2011,03,17,04,59,-0.80
2011,03,17,05,00,-0.80
2011,03,17,05,01,-0.80
2011,03,17,05,02,-0.80
2011,03,17,05,03,-0.70
2011,03,17,05,04,-0.80
2011,03,17,05,05,-0.80
2011,03,17,05,06,-0.80
2011,03,17,05,07,-0.80
2011,03,17,05,08,-0.80
2011,03,17,05,09,-0.80
2011,03,17,05,10,-0.80
2011,03,17,05,11,-0.80
2011,03,17,05,12,-0.80
2011,03,17,05,13,-0.80
2011,03,17,05,14,-0.80
2011,03,17,05,15,-0.80
2011,03,17,05,16,-0.80
2011,03,17,05,17,-0.80
2011,03,17,05,18,-0.80
2011,03,17,05,19,-0.80
2011,03,17,05,20,-0.80
2011,03,17,05,21,-0.80
2011,03,17,05,22,-0.80
2011,03,17,05,23,-0.80
2011,03,17,05,24,-0.80
2011,03,17,05,25,-0.80
2011,03,17,05,26,-0.80
2011,03,17,05,27,-0.80
2011,03,17,05,28,-0.80
2011,03,17,05,29,-0.80
2011,03,17,05,30,-0.80
2011,03,17,05,31,-0.80
2011,03,17,05,32,-0.90
2011,03,17,05,33,-0.90
2011,03,17,05,34,-0.90
2011,03,17,05,35,-0.80
2011,03,17,05,36,-0.80
2011,03,17,05,37,-0.80
2011,03,17,05,38,-0.80
2011,03,17,05,39,-0.80
2011,03,17,05,40,-0.70
2011,03,17,05,41,-0.70
2011,03,17,05,42,-0.70
2011,03,17,05,43,-0.70
2011,03,17,05,44,-0.70
2011,03,17,05,45,-0.70
2011,03,17,05,46,-0.70
2011,03,17,05,47,-0.60
2011,03,17,05,48,-0.60
2011,03,17,05,49,-0.60
2011,03,17,05,50,-0.60
2011,03,17,05,51,-0.60
2011,03,17,05,52,-0.60
2011,03,17,05,53,-0.60
2011,03,17,05,54,-0.60
2011,03,17,05,55,-0.70
2011,03,17,05,56,-0.70
2011,03,17,05,57,-0.70
2011,03,17,05,58,-0.70
2011,03,17,05,59,-0.70
2011,03,17,06,00,-0.70
2011,03,17,06,01,-0.70
2011,03,17,06,02,-0.70
2011,03,17,06,03,-0.70
2011,03,17,06,04,-0.70
2011,03,17,06,05,-0.70
2011,03,17,06,06,-0.70
2011,03,17,06,07,-0.70
2011,03,17,06,08,-0.70
2011,03,17,06,09,-0.80
2011,03,17,06,10,-0.80
2011,03,17,06,11,-0.80
2011,03,17,06,12,-0.80
2011,03,17,06,13,-0.80
2011,03,17,06,14,-0.70
2011,03,17,06,15,-0.70
2011,03,17,06,16,-0.70
2011,03,17,06,17,-0.70
2011,03,17,06,18,-0.70
2011,03,17,06,19,-0.70
2011,03,17,06,20,-0.70
2011,03,17,06,21,-0.70
2011,03,17,06,22,-0.70
2011,03,17,06,23,-0.60
2011,03,17,06,24,-0.60
2011,03,17,06,25,-0.60
2011,03,17,06,26,-0.70
2011,03,17,06,27,-0.70
2011,03,17,06,28,-0.70
2011,03,17,06,29,-0.70
2011,03,17,06,30,-0.70
2011,03,17,06,31,-0.70
2011,03,17,06,32,-0.70
2011,03,17,06,33,-0.70
2011,03,17,06,34,-0.70
2011,03,17,06,35,-0.70
2011,03,17,06,36,-0.80
2011,03,17,06,37,-0.80
2011,03,17,06,38,-0.70
2011,03,17,06,39,-0.70
2011,03,17,06,40,-0.70
2011,03,17,06,41,-0.60
2011,03,17,06,42,-0.60
2011,03,17,06,43,-0.60
2011,03,17,06,44,-0.60
2011,03,17,06,45,-0.60
2011,03,17,06,46,-0.60
2011,03,17,06,47,-0.60
2011,03,17,06,48,-0.60
2011,03,17,06,49,-0.60
2011,03,17,06,50,-0.60
2011,03,17,06,51,-0.50
2011,03,17,06,52,-0.50
2011,03,17,06,53,-0.50
2011,03,17,06,54,-0.40
2011,03,17,06,55,-0.40
2011,03,17,06,56,-0.30
2011,03,17,06,57,-0.30
2011,03,17,06,58,-0.30
2011,03,17,06,59,-0.30
2011,03,17,07,00,-0.30
2011,03,17,07,01,-0.20
2011,03,17,07,02,-0.20
2011,03,17,07,03,-0.20
2011,03,17,07,04,-0.10
2011,03,17,07,05,0.00
2011,03,17,07,06,0.10
2011,03,17,07,07,0.20
2011,03,17,07,08,0.30
2011,03,17,07,09,0.50
2011,03,17,07,10,0.60
2011,03,17,07,11,0.80
2011,03,17,07,12,0.90
2011,03,17,07,13,1.00
2011,03,17,07,14,1.10
2011,03,17,07,15,1.00
2011,03,17,07,16,0.90
2011,03,17,07,17,0.80
2011,03,17,07,18,0.70
2011,03,17,07,19,0.70
2011,03,17,07,20,0.60
2011,03,17,07,21,0.60
2011,03,17,07,22,0.50
2011,03,17,07,23,0.50
2011,03,17,07,24,0.40
2011,03,17,07,25,0.40
2011,03,17,07,26,0.40
2011,03,17,07,27,0.30
2011,03,17,07,28,0.30
2011,03,17,07,29,0.30
2011,03,17,07,30,0.30
2011,03,17,07,31,0.30
2011,03,17,07,32,0.30
2011,03,17,07,33,0.30
2011,03,17,07,34,0.30
2011,03,17,07,35,0.30
2011,03,17,07,36,0.30
2011,03,17,07,37,0.40
2011,03,17,07,38,0.50
2011,03,17,07,39,0.70
2011,03,17,07,40,0.80
2011,03,17,07,41,0.90
2011,03,17,07,42,0.90
2011,03,17,07,43,1.00
2011,03,17,07,44,1.10
2011,03,17,07,45,1.20
2011,03,17,07,46,1.30
2011,03,17,07,47,1.30
2011,03,17,07,48,1.30
2011,03,17,07,49,1.50
2011,03,17,07,50,1.60
2011,03,17,07,51,1.70
2011,03,17,07,52,1.70
2011,03,17,07,53,1.70
2011,03,17,07,54,1.70
2011,03,17,07,55,1.70
2011,03,17,07,56,1.60
2011,03,17,07,57,1.60
2011,03,17,07,58,1.60
2011,03,17,07,59,1.60
2011,03,17,08,00,1.60
2011,03,17,08,01,1.70
2011,03,17,08,02,1.70
2011,03,17,08,03,1.80
2011,03,17,08,04,1.80
2011,03,17,08,05,1.90
2011,03,17,08,06,2.00
2011,03,17,08,07,2.10
2011,03,17,08,08,2.10
2011,03,17,08,09,2.20
2011,03,17,08,10,2.20
2011,03,17,08,11,2.20
2011,03,17,08,12,2.20
2011,03,17,08,13,2.30
2011,03,17,08,14,2.30
2011,03,17,08,15,2.30
2011,03,17,08,16,2.30
2011,03,17,08,17,2.30
2011,03,17,08,18,2.30
2011,03,17,08,19,2.40
2011,03,17,08,20,2.40
2011,03,17,08,21,2.40
2011,03,17,08,22,2.40
2011,03,17,08,23,2.40
2011,03,17,08,24,2.40
2011,03,17,08,25,2.40
2011,03,17,08,26,2.40
2011,03,17,08,27,2.40
2011,03,17,08,28,2.40
2011,03,17,08,29,2.40
2011,03,17,08,30,2.50
2011,03,17,08,31,2.50
2011,03,17,08,32,2.50
2011,03,17,08,33,2.50
2011,03,17,08,34,2.50
2011,03,17,08,35,2.50
2011,03,17,08,36,2.50
2011,03,17,08,37,2.50
2011,03,17,08,38,2.50
2011,03,17,08,39,2.50
2011,03,17,08,40,2.50
2011,03,17,08,41,2.50
2011,03,17,08,42,2.60
2011,03,17,08,43,2.60
2011,03,17,08,44,2.60
2011,03,17,08,45,2.60
2011,03,17,08,46,2.60
2011,03,17,08,47,2.60
2011,03,17,08,48,2.60
2011,03,17,08,49,2.60
2011,03,17,08,50,2.70
2011,03,17,08,51,2.70
2011,03,17,08,52,2.70
2011,03,17,08,53,2.70
2011,03,17,08,54,2.70
2011,03,17,08,55,2.70
2011,03,17,08,56,2.70
2011,03,17,08,57,2.80
2011,03,17,08,58,2.80
2011,03,17,08,59,2.80
2011,03,17,09,00,2.80
2011,03,17,09,01,2.80
2011,03,17,09,02,2.80
2011,03,17,09,03,2.80
2011,03,17,09,04,2.80
2011,03,17,09,05,2.80
2011,03,17,09,06,2.80
2011,03,17,09,07,2.90
2011,03,17,09,08,2.90
2011,03,17,09,09,2.90
2011,03,17,09,10,2.90
2011,03,17,09,11,2.90
2011,03,17,09,12,2.90
2011,03,17,09,13,2.90
2011,03,17,09,14,3.00
2011,03,17,09,15,3.00
2011,03,17,09,16,3.00
2011,03,17,09,17,3.10
2011,03,17,09,18,3.10
2011,03,17,09,19,3.10
2011,03,17,09,20,3.10
2011,03,17,09,21,3.10
2011,03,17,09,22,3.20
2011,03,17,09,23,3.20
2011,03,17,09,24,3.20
2011,03,17,09,25,3.20
2011,03,17,09,26,3.20
2011,03,17,09,27,3.30
2011,03,17,09,28,3.30
2011,03,17,09,29,3.40
2011,03,17,09,30,3.40
2011,03,17,09,31,3.40
2011,03,17,09,32,3.40
2011,03,17,09,33,3.50
2011,03,17,09,34,3.50
2011,03,17,09,35,3.50
2011,03,17,09,36,3.50
2011,03,17,09,37,3.60
2011,03,17,09,38,3.60
2011,03,17,09,39,3.60
2011,03,17,09,40,3.70
2011,03,17,09,41,3.70
2011,03,17,09,42,3.70
2011,03,17,09,43,3.70
2011,03,17,09,44,3.70
2011,03,17,09,45,3.80
2011,03,17,09,46,3.80
2011,03,17,09,47,3.80
2011,03,17,09,48,3.80
2011,03,17,09,49,3.80
2011,03,17,09,50,3.80
2011,03,17,09,51,3.80
2011,03,17,09,52,3.90
2011,03,17,09,53,3.90
2011,03,17,09,54,3.90
2011,03,17,09,55,3.90
2011,03,17,09,56,3.90
2011,03,17,09,57,4.00
2011,03,17,09,58,4.00
2011,03,17,09,59,4.10
2011,03,17,10,00,4.10
2011,03,17,10,01,4.10
2011,03,17,10,02,4.10
2011,03,17,10,03,4.10
2011,03,17,10,04,4.10
2011,03,17,10,05,4.10
2011,03,17,10,06,4.10
2011,03,17,10,07,4.10
2011,03,17,10,08,4.10
2011,03,17,10,09,4.10
2011,03,17,10,10,4.10
2011,03,17,10,11,4.10
2011,03,17,10,12,4.10
2011,03,17,10,13,4.10
2011,03,17,10,14,4.10
2011,03,17,10,15,4.10
2011,03,17,10,16,4.10
2011,03,17,10,17,4.20
2011,03,17,10,18,4.20
2011,03,17,10,19,4.20
2011,03,17,10,20,4.20
2011,03,17,10,21,4.20
2011,03,17,10,22,4.20
2011,03,17,10,23,4.20
2011,03,17,10,24,4.30
2011,03,17,10,25,4.30
2011,03,17,10,26,4.30
2011,03,17,10,27,4.30
2011,03,17,10,28,4.30
2011,03,17,10,29,4.40
2011,03,17,10,30,4.40
2011,03,17,10,31,4.40
2011,03,17,10,32,4.40
2011,03,17,10,33,4.40
2011,03,17,10,34,4.50
2011,03,17,10,35,4.50
2011,03,17,10,36,4.50
2011,03,17,10,37,4.50
2011,03,17,10,38,4.50
2011,03,17,10,39,4.50
2011,03,17,10,40,4.50
2011,03,17,10,41,4.50
2011,03,17,10,42,4.50
2011,03,17,10,43,4.50
2011,03,17,10,44,4.50
2011,03,17,10,45,4.50
2011,03,17,10,46,4.50
2011,03,17,10,47,4.50
2011,03,17,10,48,4.50
2011,03,17,10,49,4.50
2011,03,17,10,50,4.50
2011,03,17,10,51,4.60
2011,03,17,10,52,4.70
2011,03,17,10,53,4.70
2011,03,17,10,54,4.80
2011,03,17,10,55,4.90
2011,03,17,10,56,5.00
2011,03,17,10,57,5.10
2011,03,17,10,58,5.10
2011,03,17,10,59,5.10
2011,03,17,11,00,5.20
2011,03,17,11,01,5.20
2011,03,17,11,02,5.20
2011,03,17,11,03,5.20
2011,03,17,11,04,5.20
2011,03,17,11,05,5.20
2011,03,17,11,06,5.20
2011,03,17,11,07,5.20
2011,03,17,11,08,5.20
2011,03,17,11,09,5.20
2011,03,17,11,10,5.20
2011,03,17,11,11,5.20
2011,03,17,11,12,5.20
2011,03,17,11,13,5.20
2011,03,17,11,14,5.20
2011,03,17,11,15,5.20
2011,03,17,11,16,5.20
2011,03,17,11,17,5.20
2011,03,17,11,18,5.20
2011,03,17,11,19,5.20
2011,03,17,11,20,5.20
2011,03,17,11,21,5.30
2011,03,17,11,22,5.30
2011,03,17,11,23,5.40
2011,03,17,11,24,5.40
2011,03,17,11,25,5.40
2011,03,17,11,26,5.50
2011,03,17,11,27,5.50
2011,03,17,11,28,5.60
2011,03,17,11,29,5.60
2011,03,17,11,30,5.70
2011,03,17,11,31,5.70
2011,03,17,11,32,5.70
2011,03,17,11,33,5.70
2011,03,17,11,34,5.70
2011,03,17,11,35,5.70
2011,03,17,11,36,5.70
2011,03,17,11,37,5.80
2011,03,17,11,38,5.80
2011,03,17,11,39,5.80
2011,03,17,11,40,5.80
2011,03,17,11,41,5.80
2011,03,17,11,42,5.70
2011,03,17,11,43,5.70
2011,03,17,11,44,5.70
2011,03,17,11,45,5.70
2011,03,17,11,46,5.60
2011,03,17,11,47,5.60
2011,03,17,11,48,5.60
2011,03,17,11,49,5.60
2011,03,17,11,50,5.50
2011,03,17,11,51,5.60
2011,03,17,11,52,5.60
2011,03,17,11,53,5.60
2011,03,17,11,54,5.70
2011,03,17,11,55,5.80
2011,03,17,11,56,5.90
2011,03,17,11,57,5.90
2011,03,17,11,58,6.00
2011,03,17,11,59,6.10
2011,03,17,12,00,6.20
2011,03,17,12,01,6.20
2011,03,17,12,02,6.20
2011,03,17,12,03,6.30
2011,03,17,12,04,6.30
2011,03,17,12,05,6.30
2011,03,17,12,06,6.30
2011,03,17,12,07,6.30
2011,03,17,12,08,6.30
2011,03,17,12,09,6.30
2011,03,17,12,10,6.20
2011,03,17,12,11,6.10
2011,03,17,12,12,5.90
2011,03,17,12,13,5.70
2011,03,17,12,14,5.50
2011,03,17,12,15,5.40
2011,03,17,12,16,5.40
2011,03,17,12,17,5.30
2011,03,17,12,18,5.30
2011,03,17,12,19,5.30
2011,03,17,12,20,5.20
2011,03,17,12,21,5.20
2011,03,17,12,22,5.10
2011,03,17,12,23,5.10
2011,03,17,12,24,5.10
2011,03,17,12,25,5.10
2011,03,17,12,26,5.10
2011,03,17,12,27,5.10
2011,03,17,12,28,5.10
2011,03,17,12,29,5.10
2011,03,17,12,30,5.10
2011,03,17,12,31,5.10
2011,03,17,12,32,5.10
2011,03,17,12,33,5.20
2011,03,17,12,34,5.20
2011,03,17,12,35,5.20
2011,03,17,12,36,5.30
2011,03,17,12,37,5.30
2011,03,17,12,38,5.30
2011,03,17,12,39,5.30
2011,03,17,12,40,5.30
2011,03,17,12,41,5.30
2011,03,17,12,42,5.20
2011,03,17,12,43,5.20
2011,03,17,12,44,5.20
2011,03,17,12,45,5.20
2011,03,17,12,46,5.20
2011,03,17,12,47,5.10
2011,03,17,12,48,5.10
2011,03,17,12,49,5.10
2011,03,17,12,50,5.10
2011,03,17,12,51,5.10
2011,03,17,12,52,5.00
2011,03,17,12,53,5.00
2011,03,17,12,54,4.90
2011,03,17,12,55,4.90
2011,03,17,12,56,4.90
2011,03,17,12,57,4.90
2011,03,17,12,58,4.90
2011,03,17,12,59,4.90
2011,03,17,13,00,4.90
2011,03,17,13,01,5.00
2011,03,17,13,02,5.00
2011,03,17,13,03,5.10
2011,03,17,13,04,5.10
2011,03,17,13,05,5.20
2011,03,17,13,06,5.30
2011,03,17,13,07,5.30
2011,03,17,13,08,5.30
2011,03,17,13,09,5.30
2011,03,17,13,10,5.30
2011,03,17,13,11,5.40
2011,03,17,13,12,5.40
2011,03,17,13,13,5.50
2011,03,17,13,14,5.60
2011,03,17,13,15,5.60
2011,03,17,13,16,5.70
2011,03,17,13,17,5.80
2011,03,17,13,18,5.80
2011,03,17,13,19,5.90
2011,03,17,13,20,5.90
2011,03,17,13,21,5.80
2011,03,17,13,22,5.70
2011,03,17,13,23,5.60
2011,03,17,13,24,5.50
2011,03,17,13,25,5.30
2011,03,17,13,26,5.20
2011,03,17,13,27,5.00
2011,03,17,13,28,4.90
2011,03,17,13,29,4.90
2011,03,17,13,30,4.80
2011,03,17,13,31,4.70
2011,03,17,13,32,4.70
2011,03,17,13,33,4.70
2011,03,17,13,34,4.70
2011,03,17,13,35,4.70
2011,03,17,13,36,4.70
2011,03,17,13,37,4.70
2011,03,17,13,38,4.70
2011,03,17,13,39,4.80
2011,03,17,13,40,4.80
2011,03,17,13,41,4.80
2011,03,17,13,42,4.80
2011,03,17,13,43,4.80
2011,03,17,13,44,4.90
2011,03,17,13,45,5.00
2011,03,17,13,46,5.00
2011,03,17,13,47,5.10
2011,03,17,13,48,5.10
2011,03,17,13,49,5.10
2011,03,17,13,50,5.10
2011,03,17,13,51,5.10
2011,03,17,13,52,5.00
2011,03,17,13,53,5.00
2011,03,17,13,54,4.90
2011,03,17,13,55,4.90
2011,03,17,13,56,4.90
2011,03,17,13,57,4.80
2011,03,17,13,59,4.80
2011,03,17,14,00,4.80
2011,03,17,14,01,4.70
2011,03,17,14,02,4.70
2011,03,17,14,03,4.70
2011,03,17,14,04,4.70
2011,03,17,14,05,4.70
2011,03,17,14,06,4.60
2011,03,17,14,07,4.60
2011,03,17,14,08,4.60
2011,03,17,14,09,4.50
2011,03,17,14,10,4.50
2011,03,17,14,11,4.50
2011,03,17,14,12,4.50
2011,03,17,14,13,4.50
2011,03,17,14,14,4.60
2011,03,17,14,15,4.60
2011,03,17,14,16,4.60
2011,03,17,14,17,4.60
2011,03,17,14,18,4.60
2011,03,17,14,19,4.60
2011,03,17,14,20,4.60
2011,03,17,14,21,4.60
2011,03,17,14,22,4.70
2011,03,17,14,23,4.70
2011,03,17,14,24,4.70
2011,03,17,14,25,4.70
2011,03,17,14,26,4.80
2011,03,17,14,27,4.80
2011,03,17,14,28,4.80
2011,03,17,14,29,4.90
2011,03,17,14,30,4.90
2011,03,17,14,31,4.90
2011,03,17,14,32,5.00
2011,03,17,14,33,5.00
2011,03,17,14,34,5.00
2011,03,17,14,35,5.10
2011,03,17,14,36,5.10
2011,03,17,14,37,5.10
2011,03,17,14,38,5.10
2011,03,17,14,39,5.10
2011,03,17,14,40,5.10
2011,03,17,14,41,5.20
2011,03,17,14,42,5.20
2011,03,17,14,43,5.20
2011,03,17,14,44,5.20
2011,03,17,14,45,5.20
2011,03,17,14,46,5.20
2011,03,17,14,47,5.20
2011,03,17,14,48,5.20
2011,03,17,14,49,5.20
2011,03,17,14,50,5.30
2011,03,17,14,51,5.30
2011,03,17,14,52,5.30
2011,03,17,14,53,5.30
2011,03,17,14,54,5.30
2011,03,17,14,55,5.30
2011,03,17,14,56,5.30
2011,03,17,14,57,5.30
2011,03,17,14,58,5.30
2011,03,17,14,59,5.30
2011,03,17,15,00,5.30
2011,03,17,15,01,5.30
2011,03,17,15,02,5.30
2011,03,17,15,03,5.30
2011,03,17,15,04,5.30
2011,03,17,15,05,5.30
2011,03,17,15,06,5.30
2011,03,17,15,07,5.30
2011,03,17,15,08,5.30
2011,03,17,15,09,5.30
2011,03,17,15,10,5.30
2011,03,17,15,11,5.30
2011,03,17,15,12,5.30
2011,03,17,15,13,5.40
2011,03,17,15,14,5.40
2011,03,17,15,15,5.40
2011,03,17,15,16,5.40
2011,03,17,15,17,5.50
2011,03,17,15,18,5.50
2011,03,17,15,19,5.50
2011,03,17,15,20,5.60
2011,03,17,15,21,5.60
2011,03,17,15,22,5.60
2011,03,17,15,23,5.60
2011,03,17,15,24,5.70
2011,03,17,15,25,5.70
2011,03,17,15,26,5.70
2011,03,17,15,27,5.80
2011,03,17,15,28,5.80
2011,03,17,15,29,5.80
2011,03,17,15,30,5.80
2011,03,17,15,31,5.90
2011,03,17,15,32,5.90
2011,03,17,15,33,5.90
2011,03,17,15,34,5.90
2011,03,17,15,35,5.90
2011,03,17,15,36,5.90
2011,03,17,15,37,5.90
2011,03,17,15,38,6.00
2011,03,17,15,39,6.00
2011,03,17,15,40,6.00
2011,03,17,15,41,6.00
2011,03,17,15,42,6.10
2011,03,17,15,43,6.10
2011,03,17,15,44,6.10
2011,03,17,15,45,6.20
2011,03,17,15,46,6.20
2011,03,17,15,47,6.20
2011,03,17,15,48,6.30
2011,03,17,15,49,6.30
2011,03,17,15,50,6.30
2011,03,17,15,51,6.30
2011,03,17,15,52,6.40
2011,03,17,15,53,6.40
2011,03,17,15,54,6.40
2011,03,17,15,55,6.40
2011,03,17,15,56,6.50
2011,03,17,15,57,6.50
2011,03,17,15,58,6.50
2011,03,17,15,59,6.50
2011,03,17,16,00,6.50
2011,03,17,16,01,6.50
2011,03,17,16,02,6.50
2011,03,17,16,03,6.50
2011,03,17,16,04,6.40
2011,03,17,16,05,6.50
2011,03,17,16,06,6.50
2011,03,17,16,07,6.50
2011,03,17,16,08,6.50
2011,03,17,16,09,6.50
2011,03,17,16,10,6.50
2011,03,17,16,11,6.50
2011,03,17,16,12,6.50
2011,03,17,16,13,6.50
2011,03,17,16,14,6.50
2011,03,17,16,15,6.60
2011,03,17,16,16,6.60
2011,03,17,16,17,6.60
2011,03,17,16,18,6.60
2011,03,17,16,19,6.60
2011,03,17,16,20,6.60
2011,03,17,16,21,6.60
2011,03,17,16,22,6.70
2011,03,17,16,23,6.70
2011,03,17,16,24,6.70
2011,03,17,16,25,6.70
2011,03,17,16,26,6.70
2011,03,17,16,27,6.70
2011,03,17,16,28,6.80
2011,03,17,16,29,6.80
2011,03,17,16,30,6.80
2011,03,17,16,31,6.80
2011,03,17,16,32,6.90
2011,03,17,16,33,6.90
2011,03,17,16,34,6.90
2011,03,17,16,35,6.90
2011,03,17,16,36,7.00
2011,03,17,16,37,7.00
2011,03,17,16,38,7.10
2011,03,17,16,39,7.10
2011,03,17,16,40,7.10
2011,03,17,16,41,7.10
2011,03,17,16,42,7.10
2011,03,17,16,43,7.10
2011,03,17,16,44,7.10
2011,03,17,16,45,7.10
2011,03,17,16,46,7.10
2011,03,17,16,47,7.10
2011,03,17,16,48,7.10
2011,03,17,16,49,7.10
2011,03,17,16,50,7.10
2011,03,17,16,51,7.10
2011,03,17,16,52,7.10
2011,03,17,16,53,7.00
2011,03,17,16,54,7.00
2011,03,17,16,55,7.00
2011,03,17,16,56,7.10
2011,03,17,16,57,7.10
2011,03,17,16,58,7.10
2011,03,17,16,59,7.10
2011,03,17,17,00,7.10
2011,03,17,17,01,7.10
2011,03,17,17,02,7.10
2011,03,17,17,03,7.10
2011,03,17,17,04,7.10
2011,03,17,17,05,7.10
2011,03,17,17,06,7.20
2011,03,17,17,07,7.20
2011,03,17,17,08,7.20
2011,03,17,17,09,7.20
2011,03,17,17,10,7.20
2011,03,17,17,11,7.20
2011,03,17,17,12,7.30
2011,03,17,17,13,7.30
2011,03,17,17,14,7.30
2011,03,17,17,15,7.30
2011,03,17,17,16,7.30
2011,03,17,17,17,7.40
2011,03,17,17,18,7.40
2011,03,17,17,19,7.40
2011,03,17,17,20,7.40
2011,03,17,17,21,7.40
2011,03,17,17,22,7.30
2011,03,17,17,23,7.30
2011,03,17,17,24,7.30
2011,03,17,17,25,7.30
2011,03,17,17,26,7.30
2011,03,17,17,27,7.30
2011,03,17,17,28,7.30
2011,03,17,17,29,7.30
2011,03,17,17,30,7.20
2011,03,17,17,31,7.20
2011,03,17,17,32,7.20
2011,03,17,17,33,7.20
2011,03,17,17,34,7.20
2011,03,17,17,35,7.20
2011,03,17,17,36,7.20
2011,03,17,17,37,7.20
2011,03,17,17,38,7.10
2011,03,17,17,39,7.10
2011,03,17,17,40,7.10
2011,03,17,17,41,7.10
2011,03,17,17,42,7.10
2011,03,17,17,43,7.10
2011,03,17,17,44,7.10
2011,03,17,17,45,7.10
2011,03,17,17,46,7.10
2011,03,17,17,47,7.10
2011,03,17,17,48,7.10
2011,03,17,17,49,7.10
2011,03,17,17,50,7.10
2011,03,17,17,51,7.00
2011,03,17,17,52,7.00
2011,03,17,17,53,7.00
2011,03,17,17,54,7.00
2011,03,17,17,55,7.00
2011,03,17,17,56,7.00
2011,03,17,17,57,7.00
2011,03,17,17,58,7.00
2011,03,17,17,59,7.00